Time,TemperatureF,DewpointF,PressureIn,WindDirection,WindDirectionDegrees,WindSpeedMPH,WindSpeedGustMPH,Humidity,HourlyPrecipIn,Conditions,Clouds,dailyrainin,SoftwareType,DateUTC
2013-01-10 00:00:00,14.9,8.1,30.46,ESE,122,0.0,0.0,74,0.00,,,0.00,Wunderground v.1.15,2013-01-10 07:00:00,
2013-01-10 00:02:00,15.1,8.3,30.44,ESE,122,0.0,0.0,74,0.00,,,0.00,Wunderground v.1.15,2013-01-10 07:02:00,
2013-01-10 00:06:00,15.4,8.3,30.44,ESE,122,0.0,0.0,73,0.00,,,0.00,Wunderground v.1.15,2013-01-10 07:06:00,
2013-01-10 00:08:00,15.6,8.8,30.44,ESE,122,0.0,0.0,74,0.00,,,0.00,Wunderground v.1.15,2013-01-10 07:08:00,
2013-01-10 00:10:00,15.6,8.5,30.44,ESE,122,0.0,0.0,73,0.00,,,0.00,Wunderground v.1.15,2013-01-10 07:10:00,
2013-01-10 00:12:00,15.4,8.0,30.44,ESE,122,0.0,0.0,72,0.00,,,0.00,Wunderground v.1.15,2013-01-10 07:12:00,
2013-01-10 00:16:00,15.1,7.7,30.42,ESE,122,0.0,0.0,72,0.00,,,0.00,Wunderground v.1.15,2013-01-10 07:16:00,
2013-01-10 00:18:00,15.1,7.7,30.42,ESE,122,0.0,0.0,72,0.00,,,0.00,Wunderground v.1.15,2013-01-10 07:18:00,
2013-01-10 00:22:00,14.8,7.4,30.42,ESE,122,0.0,0.0,72,0.00,,,0.00,Wunderground v.1.15,2013-01-10 07:22:00,
2013-01-10 00:24:00,14.6,7.2,30.42,ESE,122,0.0,0.0,72,0.00,,,0.00,Wunderground v.1.15,2013-01-10 07:24:00,
2013-01-10 00:30:00,14.9,7.8,30.42,ESE,122,0.0,0.0,73,0.00,,,0.00,Wunderground v.1.15,2013-01-10 07:30:00,
2013-01-10 00:32:00,15.2,8.1,30.41,ESE,122,0.0,0.0,73,0.00,,,0.00,Wunderground v.1.15,2013-01-10 07:32:00,
2013-01-10 00:36:00,16.4,9.6,30.41,ESE,122,0.0,0.0,74,0.00,,,0.00,Wunderground v.1.15,2013-01-10 07:36:00,
2013-01-10 00:38:00,16.9,9.7,30.41,ESE,122,0.0,0.0,73,0.00,,,0.00,Wunderground v.1.15,2013-01-10 07:38:00,
2013-01-10 00:40:00,16.7,8.9,30.41,ESE,122,0.0,0.0,71,0.00,,,0.00,Wunderground v.1.15,2013-01-10 07:40:00,
2013-01-10 00:42:00,16.5,8.7,30.41,ESE,122,0.0,0.0,71,0.00,,,0.00,Wunderground v.1.15,2013-01-10 07:42:00,
2013-01-10 00:48:00,16.5,8.7,30.39,ESE,122,0.0,0.0,71,0.00,,,0.00,Wunderground v.1.15,2013-01-10 07:48:00,
2013-01-10 00:50:00,16.4,8.3,30.39,ESE,122,0.0,0.0,70,0.00,,,0.00,Wunderground v.1.15,2013-01-10 07:50:00,
2013-01-10 00:54:00,16.2,8.4,30.39,ESE,122,0.0,0.0,71,0.00,,,0.00,Wunderground v.1.15,2013-01-10 07:54:00,
2013-01-10 00:58:00,17.2,9.1,30.39,SE,127,1.0,3.0,70,0.00,,,0.00,Wunderground v.1.15,2013-01-10 07:58:00,
2013-01-10 01:00:00,17.7,9.2,30.39,SE,127,1.0,1.0,69,0.00,,,0.00,Wunderground v.1.15,2013-01-10 08:00:00,
2013-01-10 01:04:00,17.7,8.9,30.37,SE,127,1.0,1.0,68,0.00,,,0.00,Wunderground v.1.15,2013-01-10 08:04:00,
2013-01-10 01:06:00,17.7,8.9,30.37,SE,127,1.0,2.0,68,0.00,,,0.00,Wunderground v.1.15,2013-01-10 08:06:00,
2013-01-10 01:10:00,17.7,8.9,30.37,SE,127,0.0,0.0,68,0.00,,,0.00,Wunderground v.1.15,2013-01-10 08:10:00,
2013-01-10 01:14:00,17.8,9.0,30.37,SE,127,0.0,0.0,68,0.00,,,0.00,Wunderground v.1.15,2013-01-10 08:14:00,
2013-01-10 01:16:00,18.0,9.2,30.35,SE,127,0.0,0.0,68,0.00,,,0.00,Wunderground v.1.15,2013-01-10 08:16:00,
2013-01-10 01:18:00,18.0,8.9,30.35,SE,127,0.0,0.0,67,0.00,,,0.00,Wunderground v.1.15,2013-01-10 08:18:00,
2013-01-10 01:22:00,17.8,8.7,30.35,SE,127,0.0,1.0,67,0.00,,,0.00,Wunderground v.1.15,2013-01-10 08:22:00,
2013-01-10 01:24:00,17.5,8.4,30.35,SE,127,0.0,1.0,67,0.00,,,0.00,Wunderground v.1.15,2013-01-10 08:24:00,
2013-01-10 01:26:00,17.5,8.4,30.35,SE,127,0.0,1.0,67,0.00,,,0.00,Wunderground v.1.15,2013-01-10 08:26:00,
2013-01-10 01:30:00,17.0,7.6,30.35,SE,127,0.0,0.0,66,0.00,,,0.00,Wunderground v.1.15,2013-01-10 08:30:00,
2013-01-10 01:34:00,17.0,7.9,30.35,SE,135,1.0,1.0,67,0.00,,,0.00,Wunderground v.1.15,2013-01-10 08:34:00,
2013-01-10 01:38:00,16.9,7.8,30.35,SE,135,1.0,1.0,67,0.00,,,0.00,Wunderground v.1.15,2013-01-10 08:38:00,
2013-01-10 01:42:00,17.0,7.9,30.35,SE,135,0.0,1.0,67,0.00,,,0.00,Wunderground v.1.15,2013-01-10 08:42:00,
2013-01-10 01:44:00,17.0,8.3,30.35,SE,135,0.0,2.0,68,0.00,,,0.00,Wunderground v.1.15,2013-01-10 08:44:00,
2013-01-10 01:48:00,17.0,8.3,30.34,SE,135,0.0,2.0,68,0.00,,,0.00,Wunderground v.1.15,2013-01-10 08:48:00,
2013-01-10 01:50:00,17.0,8.3,30.34,SE,135,0.0,0.0,68,0.00,,,0.00,Wunderground v.1.15,2013-01-10 08:50:00,
2013-01-10 01:52:00,17.0,8.3,30.34,SE,135,0.0,0.0,68,0.00,,,0.00,Wunderground v.1.15,2013-01-10 08:52:00,
2013-01-10 01:56:00,17.5,8.7,30.34,SE,135,0.0,0.0,68,0.00,,,0.00,Wunderground v.1.15,2013-01-10 08:56:00,
2013-01-10 01:58:00,17.7,8.6,30.34,SE,135,0.0,0.0,67,0.00,,,0.00,Wunderground v.1.15,2013-01-10 08:58:00,
2013-01-10 02:02:00,17.8,8.4,30.33,SE,135,0.0,2.0,66,0.00,,,0.00,Wunderground v.1.15,2013-01-10 09:02:00,
2013-01-10 02:04:00,18.1,8.6,30.33,SE,135,0.0,2.0,66,0.00,,,0.00,Wunderground v.1.15,2013-01-10 09:04:00,
2013-01-10 02:06:00,18.3,8.5,30.33,SE,135,0.0,2.0,65,0.00,,,0.00,Wunderground v.1.15,2013-01-10 09:06:00,
2013-01-10 02:08:00,18.4,8.6,30.33,SE,135,0.0,2.0,65,0.00,,,0.00,Wunderground v.1.15,2013-01-10 09:08:00,
2013-01-10 02:10:00,18.6,8.8,30.33,SE,135,0.0,0.0,65,0.00,,,0.00,Wunderground v.1.15,2013-01-10 09:10:00,
2013-01-10 02:14:00,18.6,8.8,30.33,SE,135,0.0,1.0,65,0.00,,,0.00,Wunderground v.1.15,2013-01-10 09:14:00,
2013-01-10 02:16:00,18.6,8.8,30.29,SE,135,0.0,1.0,65,0.00,,,0.00,Wunderground v.1.15,2013-01-10 09:16:00,
2013-01-10 02:20:00,18.6,8.8,30.29,SE,135,0.0,0.0,65,0.00,,,0.00,Wunderground v.1.15,2013-01-10 09:20:00,
2013-01-10 02:22:00,18.6,8.4,30.29,SE,135,0.0,0.0,64,0.00,,,0.00,Wunderground v.1.15,2013-01-10 09:22:00,
2013-01-10 02:24:00,18.6,8.4,30.29,SE,135,0.0,0.0,64,0.00,,,0.00,Wunderground v.1.15,2013-01-10 09:24:00,
2013-01-10 02:26:00,18.6,8.4,30.29,SE,135,0.0,0.0,64,0.00,,,0.00,Wunderground v.1.15,2013-01-10 09:26:00,
2013-01-10 02:28:00,18.6,8.4,30.29,SE,135,0.0,0.0,64,0.00,,,0.00,Wunderground v.1.15,2013-01-10 09:28:00,
2013-01-10 02:30:00,18.4,8.6,30.29,SE,135,0.0,0.0,65,0.00,,,0.00,Wunderground v.1.15,2013-01-10 09:30:00,
2013-01-10 02:34:00,18.4,8.2,30.29,SE,135,0.0,3.0,64,0.00,,,0.00,Wunderground v.1.15,2013-01-10 09:34:00,
2013-01-10 02:36:00,18.6,8.4,30.29,SE,135,0.0,3.0,64,0.00,,,0.00,Wunderground v.1.15,2013-01-10 09:36:00,
2013-01-10 02:38:00,18.9,8.7,30.29,SE,135,0.0,3.0,64,0.00,,,0.00,Wunderground v.1.15,2013-01-10 09:38:00,
2013-01-10 02:40:00,18.9,8.4,30.29,SE,135,0.0,3.0,63,0.00,,,0.00,Wunderground v.1.15,2013-01-10 09:40:00,
2013-01-10 02:44:00,19.2,8.3,30.29,SE,135,1.0,3.0,62,0.00,,,0.00,Wunderground v.1.15,2013-01-10 09:44:00,
2013-01-10 02:46:00,19.5,8.6,30.27,SE,135,1.0,3.0,62,0.00,,,0.00,Wunderground v.1.15,2013-01-10 09:46:00,
2013-01-10 02:48:00,19.5,8.6,30.27,SE,135,1.0,3.0,62,0.00,,,0.00,Wunderground v.1.15,2013-01-10 09:48:00,
2013-01-10 02:50:00,19.7,8.4,30.27,SE,136,2.0,3.0,61,0.00,,,0.00,Wunderground v.1.15,2013-01-10 09:50:00,
2013-01-10 02:52:00,19.9,8.6,30.27,SE,136,2.0,3.0,61,0.00,,,0.00,Wunderground v.1.15,2013-01-10 09:52:00,
2013-01-10 02:54:00,19.7,8.4,30.27,SE,136,2.0,3.0,61,0.00,,,0.00,Wunderground v.1.15,2013-01-10 09:54:00,
2013-01-10 02:56:00,19.7,8.4,30.27,SE,136,1.0,3.0,61,0.00,,,0.00,Wunderground v.1.15,2013-01-10 09:56:00,
2013-01-10 03:00:00,19.7,8.4,30.27,SE,136,0.0,0.0,61,0.00,,,0.00,Wunderground v.1.15,2013-01-10 10:00:00,
2013-01-10 03:06:00,20.2,8.5,30.27,SE,136,0.0,2.0,60,0.00,,,0.00,Wunderground v.1.15,2013-01-10 10:06:00,
2013-01-10 03:10:00,20.2,8.1,30.27,SE,136,0.0,0.0,59,0.00,,,0.00,Wunderground v.1.15,2013-01-10 10:10:00,
2013-01-10 03:12:00,20.0,8.0,30.27,SE,136,0.0,0.0,59,0.00,,,0.00,Wunderground v.1.15,2013-01-10 10:12:00,
2013-01-10 03:14:00,19.9,8.2,30.27,SE,136,0.0,0.0,60,0.00,,,0.00,Wunderground v.1.15,2013-01-10 10:14:00,
2013-01-10 03:18:00,19.5,7.9,30.27,SE,136,0.0,0.0,60,0.00,,,0.00,Wunderground v.1.15,2013-01-10 10:18:00,
2013-01-10 03:22:00,19.1,8.2,30.27,ENE,64,0.0,0.0,62,0.00,,,0.00,Wunderground v.1.15,2013-01-10 10:22:00,
2013-01-10 03:24:00,18.9,8.0,30.27,ENE,64,0.0,0.0,62,0.00,,,0.00,Wunderground v.1.15,2013-01-10 10:24:00,
2013-01-10 03:26:00,18.9,7.7,30.27,ENE,64,0.0,0.0,61,0.00,,,0.00,Wunderground v.1.15,2013-01-10 10:26:00,
2013-01-10 03:28:00,18.8,7.6,30.27,ENE,65,0.0,0.0,61,0.00,,,0.00,Wunderground v.1.15,2013-01-10 10:28:00,
2013-01-10 03:32:00,18.1,7.3,30.29,ENE,65,0.0,0.0,62,0.00,,,0.00,Wunderground v.1.15,2013-01-10 10:32:00,
2013-01-10 03:34:00,18.0,7.5,30.29,ENE,65,0.0,0.0,63,0.00,,,0.00,Wunderground v.1.15,2013-01-10 10:34:00,
2013-01-10 03:36:00,17.8,7.3,30.29,ENE,65,0.0,0.0,63,0.00,,,0.00,Wunderground v.1.15,2013-01-10 10:36:00,
2013-01-10 03:38:00,17.8,7.7,30.29,ENE,65,0.0,0.0,64,0.00,,,0.00,Wunderground v.1.15,2013-01-10 10:38:00,
2013-01-10 03:42:00,17.8,8.0,30.29,ENE,65,0.0,0.0,65,0.00,,,0.00,Wunderground v.1.15,2013-01-10 10:42:00,
2013-01-10 03:44:00,18.0,7.9,30.29,ENE,65,0.0,0.0,64,0.00,,,0.00,Wunderground v.1.15,2013-01-10 10:44:00,
2013-01-10 03:48:00,18.0,7.9,30.28,ENE,65,0.0,0.0,64,0.00,,,0.00,Wunderground v.1.15,2013-01-10 10:48:00,
2013-01-10 03:54:00,18.3,7.8,30.28,SSE,161,1.0,1.0,63,0.00,,,0.00,Wunderground v.1.15,2013-01-10 10:54:00,
2013-01-10 03:56:00,18.4,7.5,30.28,SSE,161,1.0,2.0,62,0.00,,,0.00,Wunderground v.1.15,2013-01-10 10:56:00,
2013-01-10 03:58:00,18.8,7.6,30.28,SSE,161,1.0,2.0,61,0.00,,,0.00,Wunderground v.1.15,2013-01-10 10:58:00,
2013-01-10 04:02:00,19.5,7.5,30.27,South,170,2.0,2.0,59,0.00,,,0.00,Wunderground v.1.15,2013-01-10 11:02:00,
2013-01-10 04:04:00,19.7,7.3,30.27,South,170,2.0,2.0,58,0.00,,,0.00,Wunderground v.1.15,2013-01-10 11:04:00,
2013-01-10 04:06:00,19.9,7.5,30.27,South,170,2.0,2.0,58,0.00,,,0.00,Wunderground v.1.15,2013-01-10 11:06:00,
2013-01-10 04:10:00,19.9,7.5,30.27,South,170,1.0,1.0,58,0.00,,,0.00,Wunderground v.1.15,2013-01-10 11:10:00,
2013-01-10 04:12:00,19.9,7.5,30.27,South,170,1.0,1.0,58,0.00,,,0.00,Wunderground v.1.15,2013-01-10 11:12:00,
2013-01-10 04:16:00,19.4,7.4,30.27,SE,132,0.0,1.0,59,0.00,,,0.00,Wunderground v.1.15,2013-01-10 11:16:00,
2013-01-10 04:18:00,19.4,7.4,30.27,SE,132,0.0,1.0,59,0.00,,,0.00,Wunderground v.1.15,2013-01-10 11:18:00,
2013-01-10 04:20:00,19.2,7.6,30.27,SE,132,0.0,0.0,60,0.00,,,0.00,Wunderground v.1.15,2013-01-10 11:20:00,
2013-01-10 04:22:00,19.4,7.8,30.27,SE,132,0.0,0.0,60,0.00,,,0.00,Wunderground v.1.15,2013-01-10 11:22:00,
2013-01-10 04:26:00,19.7,7.7,30.27,SE,132,0.0,1.0,59,0.00,,,0.00,Wunderground v.1.15,2013-01-10 11:26:00,
2013-01-10 04:30:00,20.3,7.9,30.27,SE,133,0.0,0.0,58,0.00,,,0.00,Wunderground v.1.15,2013-01-10 11:30:00,
2013-01-10 04:36:00,20.8,8.3,30.26,SE,136,1.0,2.0,58,0.00,,,0.00,Wunderground v.1.15,2013-01-10 11:36:00,
2013-01-10 04:40:00,21.0,8.1,30.26,SE,136,0.0,0.0,57,0.00,,,0.00,Wunderground v.1.15,2013-01-10 11:40:00,
2013-01-10 04:42:00,21.1,8.2,30.26,SE,136,0.0,0.0,57,0.00,,,0.00,Wunderground v.1.15,2013-01-10 11:42:00,
2013-01-10 04:44:00,21.1,8.2,30.26,SE,136,0.0,0.0,57,0.00,,,0.00,Wunderground v.1.15,2013-01-10 11:44:00,
2013-01-10 04:46:00,21.3,8.4,30.26,SE,136,0.0,0.0,57,0.00,,,0.00,Wunderground v.1.15,2013-01-10 11:46:00,
2013-01-10 04:52:00,21.1,8.6,30.26,SE,136,0.0,0.0,58,0.00,,,0.00,Wunderground v.1.15,2013-01-10 11:52:00,
2013-01-10 04:54:00,21.1,8.6,30.26,SE,136,0.0,0.0,58,0.00,,,0.00,Wunderground v.1.15,2013-01-10 11:54:00,
2013-01-10 05:00:00,21.4,8.9,30.26,SE,136,0.0,0.0,58,0.00,,,0.00,Wunderground v.1.15,2013-01-10 12:00:00,
2013-01-10 05:02:00,21.4,8.9,30.25,SE,136,0.0,0.0,58,0.00,,,0.00,Wunderground v.1.15,2013-01-10 12:02:00,
2013-01-10 05:04:00,21.6,9.1,30.25,SE,136,0.0,0.0,58,0.00,,,0.00,Wunderground v.1.15,2013-01-10 12:04:00,
2013-01-10 05:10:00,21.6,9.1,30.25,SE,136,0.0,0.0,58,0.00,,,0.00,Wunderground v.1.15,2013-01-10 12:10:00,
2013-01-10 05:12:00,21.6,9.1,30.25,SE,136,0.0,0.0,58,0.00,,,0.00,Wunderground v.1.15,2013-01-10 12:12:00,
2013-01-10 05:14:00,21.6,9.1,30.25,SE,136,0.0,0.0,58,0.00,,,0.00,Wunderground v.1.15,2013-01-10 12:14:00,
2013-01-10 05:16:00,21.4,8.9,30.29,SE,136,0.0,0.0,58,0.00,,,0.00,Wunderground v.1.15,2013-01-10 12:16:00,
2013-01-10 05:20:00,21.3,8.8,30.29,SE,136,0.0,0.0,58,0.00,,,0.00,Wunderground v.1.15,2013-01-10 12:20:00,
2013-01-10 05:22:00,21.1,8.6,30.29,SE,136,0.0,0.0,58,0.00,,,0.00,Wunderground v.1.15,2013-01-10 12:22:00,
2013-01-10 05:28:00,21.9,9.0,30.29,SSE,152,0.0,3.0,57,0.00,,,0.00,Wunderground v.1.15,2013-01-10 12:28:00,
2013-01-10 05:32:00,22.7,8.9,30.27,SSE,153,1.0,4.0,55,0.00,,,0.00,Wunderground v.1.15,2013-01-10 12:32:00,
2013-01-10 05:34:00,22.7,8.9,30.27,SSE,153,1.0,4.0,55,0.00,,,0.00,Wunderground v.1.15,2013-01-10 12:34:00,
2013-01-10 05:36:00,22.9,9.1,30.27,SSE,153,1.0,4.0,55,0.00,,,0.00,Wunderground v.1.15,2013-01-10 12:36:00,
2013-01-10 05:40:00,22.7,8.9,30.27,SSE,153,0.0,0.0,55,0.00,,,0.00,Wunderground v.1.15,2013-01-10 12:40:00,
2013-01-10 05:42:00,22.5,9.1,30.27,SSE,153,0.0,0.0,56,0.00,,,0.00,Wunderground v.1.15,2013-01-10 12:42:00,
2013-01-10 05:44:00,22.4,9.1,30.27,SSE,153,0.0,0.0,56,0.00,,,0.00,Wunderground v.1.15,2013-01-10 12:44:00,
2013-01-10 05:46:00,22.2,8.9,30.27,SSE,153,0.0,0.0,56,0.00,,,0.00,Wunderground v.1.15,2013-01-10 12:46:00,
2013-01-10 05:48:00,22.1,9.2,30.27,SSE,153,0.0,0.0,57,0.00,,,0.00,Wunderground v.1.15,2013-01-10 12:48:00,
2013-01-10 05:50:00,21.9,9.0,30.27,SSE,153,0.0,0.0,57,0.00,,,0.00,Wunderground v.1.15,2013-01-10 12:50:00,
2013-01-10 05:52:00,21.8,9.3,30.27,SSE,153,0.0,0.0,58,0.00,,,0.00,Wunderground v.1.15,2013-01-10 12:52:00,
2013-01-10 05:56:00,21.0,8.9,30.27,ENE,78,0.0,2.0,59,0.00,,,0.00,Wunderground v.1.15,2013-01-10 12:56:00,
2013-01-10 05:58:00,20.8,8.7,30.27,ENE,78,0.0,2.0,59,0.00,,,0.00,Wunderground v.1.15,2013-01-10 12:58:00,
2013-01-10 06:04:00,20.3,9.0,30.27,ENE,78,0.0,0.0,61,0.00,,,0.00,Wunderground v.1.15,2013-01-10 13:04:00,
2013-01-10 06:06:00,20.2,8.9,30.27,ENE,78,0.0,0.0,61,0.00,,,0.00,Wunderground v.1.15,2013-01-10 13:06:00,
2013-01-10 06:08:00,20.2,9.2,30.27,ENE,78,0.0,0.0,62,0.00,,,0.00,Wunderground v.1.15,2013-01-10 13:08:00,
2013-01-10 06:10:00,20.0,9.1,30.27,ENE,78,0.0,0.0,62,0.00,,,0.00,Wunderground v.1.15,2013-01-10 13:10:00,
2013-01-10 06:12:00,20.0,9.1,30.27,ENE,78,0.0,0.0,62,0.00,,,0.00,Wunderground v.1.15,2013-01-10 13:12:00,
2013-01-10 06:14:00,19.9,9.0,30.27,ENE,78,0.0,0.0,62,0.00,,,0.00,Wunderground v.1.15,2013-01-10 13:14:00,
2013-01-10 06:16:00,19.7,8.8,30.29,ENE,78,0.0,0.0,62,0.00,,,0.00,Wunderground v.1.15,2013-01-10 13:16:00,
2013-01-10 06:20:00,19.5,8.9,30.29,ENE,78,0.0,0.0,63,0.00,,,0.00,Wunderground v.1.15,2013-01-10 13:20:00,
2013-01-10 06:22:00,19.5,8.9,30.29,ENE,78,0.0,1.0,63,0.00,,,0.00,Wunderground v.1.15,2013-01-10 13:22:00,
2013-01-10 06:24:00,19.5,8.9,30.29,ENE,78,0.0,1.0,63,0.00,,,0.00,Wunderground v.1.15,2013-01-10 13:24:00,
2013-01-10 06:28:00,19.4,9.2,30.29,ENE,78,0.0,1.0,64,0.00,,,0.00,Wunderground v.1.15,2013-01-10 13:28:00,
2013-01-10 06:30:00,19.4,8.8,30.29,ENE,78,0.0,0.0,63,0.00,,,0.00,Wunderground v.1.15,2013-01-10 13:30:00,
2013-01-10 06:32:00,19.4,8.8,30.30,ENE,78,0.0,0.0,63,0.00,,,0.00,Wunderground v.1.15,2013-01-10 13:32:00,
2013-01-10 06:34:00,19.4,8.8,30.30,ENE,78,0.0,0.0,63,0.00,,,0.00,Wunderground v.1.15,2013-01-10 13:34:00,
2013-01-10 06:38:00,19.9,8.6,30.30,ENE,78,0.0,0.0,61,0.00,,,0.00,Wunderground v.1.15,2013-01-10 13:38:00,
2013-01-10 06:40:00,20.0,8.7,30.30,ENE,78,0.0,0.0,61,0.00,,,0.00,Wunderground v.1.15,2013-01-10 13:40:00,
2013-01-10 06:44:00,20.3,8.6,30.30,ENE,78,0.0,1.0,60,0.00,,,0.00,Wunderground v.1.15,2013-01-10 13:44:00,
2013-01-10 06:46:00,20.5,8.8,30.28,East,88,0.0,2.0,60,0.00,,,0.00,Wunderground v.1.15,2013-01-10 13:46:00,
2013-01-10 06:48:00,20.6,8.9,30.28,East,88,1.0,2.0,60,0.00,,,0.00,Wunderground v.1.15,2013-01-10 13:48:00,
2013-01-10 06:50:00,20.6,8.5,30.28,East,88,1.0,1.0,59,0.00,,,0.00,Wunderground v.1.15,2013-01-10 13:50:00,
2013-01-10 06:52:00,21.0,8.5,30.28,South,176,1.0,1.0,58,0.00,,,0.00,Wunderground v.1.15,2013-01-10 13:52:00,
2013-01-10 06:54:00,21.3,8.8,30.28,South,175,1.0,1.0,58,0.00,,,0.00,Wunderground v.1.15,2013-01-10 13:54:00,
2013-01-10 06:58:00,21.3,8.8,30.28,South,175,0.0,1.0,58,0.00,,,0.00,Wunderground v.1.15,2013-01-10 13:58:00,
2013-01-10 07:00:00,21.3,8.8,30.28,South,176,0.0,1.0,58,0.00,,,0.00,Wunderground v.1.15,2013-01-10 14:00:00,
2013-01-10 07:02:00,21.4,8.9,30.28,South,176,0.0,1.0,58,0.00,,,0.00,Wunderground v.1.15,2013-01-10 14:02:00,
2013-01-10 07:06:00,21.4,8.9,30.28,South,176,0.0,1.0,58,0.00,,,0.00,Wunderground v.1.15,2013-01-10 14:06:00,
2013-01-10 07:08:00,21.4,8.9,30.28,South,176,0.0,1.0,58,0.00,,,0.00,Wunderground v.1.15,2013-01-10 14:08:00,
2013-01-10 07:10:00,21.3,8.8,30.28,South,176,0.0,0.0,58,0.00,,,0.00,Wunderground v.1.15,2013-01-10 14:10:00,
2013-01-10 07:14:00,21.1,9.0,30.28,South,176,0.0,0.0,59,0.00,,,0.00,Wunderground v.1.15,2013-01-10 14:14:00,
2013-01-10 07:16:00,21.0,8.9,30.29,South,176,0.0,0.0,59,0.00,,,0.00,Wunderground v.1.15,2013-01-10 14:16:00,
2013-01-10 07:18:00,21.0,8.9,30.29,South,176,0.0,0.0,59,0.00,,,0.00,Wunderground v.1.15,2013-01-10 14:18:00,
2013-01-10 07:20:00,21.0,8.9,30.29,South,176,0.0,0.0,59,0.00,,,0.00,Wunderground v.1.15,2013-01-10 14:20:00,
2013-01-10 07:24:00,21.1,9.0,30.29,South,176,0.0,0.0,59,0.00,,,0.00,Wunderground v.1.15,2013-01-10 14:24:00,
2013-01-10 07:26:00,21.1,9.0,30.29,South,176,0.0,0.0,59,0.00,,,0.00,Wunderground v.1.15,2013-01-10 14:26:00,
2013-01-10 07:28:00,21.3,9.2,30.29,South,176,0.0,1.0,59,0.00,,,0.00,Wunderground v.1.15,2013-01-10 14:28:00,
2013-01-10 07:30:00,21.4,9.3,30.29,South,176,0.0,1.0,59,0.00,,,0.00,Wunderground v.1.15,2013-01-10 14:30:00,
2013-01-10 07:36:00,21.8,9.3,30.29,South,176,1.0,1.0,58,0.00,,,0.00,Wunderground v.1.15,2013-01-10 14:36:00,
2013-01-10 07:40:00,21.8,9.3,30.29,South,176,0.0,0.0,58,0.00,,,0.00,Wunderground v.1.15,2013-01-10 14:40:00,
2013-01-10 07:42:00,21.9,9.4,30.29,South,175,0.0,0.0,58,0.00,,,0.00,Wunderground v.1.15,2013-01-10 14:42:00,
2013-01-10 07:46:00,22.2,8.9,30.29,South,176,0.0,2.0,56,0.00,,,0.00,Wunderground v.1.15,2013-01-10 14:46:00,
2013-01-10 07:48:00,22.5,9.1,30.29,South,176,0.0,2.0,56,0.00,,,0.00,Wunderground v.1.15,2013-01-10 14:48:00,
2013-01-10 07:52:00,22.7,8.5,30.29,South,175,0.0,0.0,54,0.00,,,0.00,Wunderground v.1.15,2013-01-10 14:52:00,
2013-01-10 07:54:00,22.9,8.7,30.29,South,176,0.0,0.0,54,0.00,,,0.00,Wunderground v.1.15,2013-01-10 14:54:00,
2013-01-10 07:58:00,23.3,9.1,30.29,South,176,0.0,0.0,54,0.00,,,0.00,Wunderground v.1.15,2013-01-10 14:58:00,
2013-01-10 08:00:00,23.5,9.3,30.29,South,175,0.0,0.0,54,0.00,,,0.00,Wunderground v.1.15,2013-01-10 15:00:00,
2013-01-10 08:04:00,23.5,9.3,30.27,South,176,0.0,0.0,54,0.00,,,0.00,Wunderground v.1.15,2013-01-10 15:04:00,
2013-01-10 08:06:00,23.6,8.9,30.27,South,175,0.0,0.0,53,0.00,,,0.00,Wunderground v.1.15,2013-01-10 15:06:00,
2013-01-10 08:08:00,23.6,9.4,30.27,South,175,0.0,0.0,54,0.00,,,0.00,Wunderground v.1.15,2013-01-10 15:08:00,
2013-01-10 08:10:00,23.6,8.9,30.27,South,175,0.0,0.0,53,0.00,,,0.00,Wunderground v.1.15,2013-01-10 15:10:00,
2013-01-10 08:14:00,23.6,9.4,30.27,South,176,0.0,0.0,54,0.00,,,0.00,Wunderground v.1.15,2013-01-10 15:14:00,
2013-01-10 08:18:00,23.6,9.4,30.28,South,175,0.0,0.0,54,0.00,,,0.00,Wunderground v.1.15,2013-01-10 15:18:00,
2013-01-10 08:20:00,23.8,9.6,30.28,South,176,0.0,0.0,54,0.00,,,0.00,Wunderground v.1.15,2013-01-10 15:20:00,
2013-01-10 08:24:00,23.8,9.6,30.28,South,175,0.0,0.0,54,0.00,,,0.00,Wunderground v.1.15,2013-01-10 15:24:00,
2013-01-10 08:26:00,23.8,9.6,30.28,South,176,0.0,0.0,54,0.00,,,0.00,Wunderground v.1.15,2013-01-10 15:26:00,
2013-01-10 08:28:00,23.9,9.6,30.28,South,176,0.0,0.0,54,0.00,,,0.00,Wunderground v.1.15,2013-01-10 15:28:00,
2013-01-10 08:30:00,23.9,9.6,30.28,South,175,0.0,0.0,54,0.00,,,0.00,Wunderground v.1.15,2013-01-10 15:30:00,
2013-01-10 08:32:00,23.9,10.1,30.28,South,175,0.0,0.0,55,0.00,,,0.00,Wunderground v.1.15,2013-01-10 15:32:00,
2013-01-10 08:36:00,24.1,9.8,30.28,South,175,0.0,0.0,54,0.00,,,0.00,Wunderground v.1.15,2013-01-10 15:36:00,
2013-01-10 08:38:00,24.2,9.9,30.28,South,175,0.0,0.0,54,0.00,,,0.00,Wunderground v.1.15,2013-01-10 15:38:00,
2013-01-10 08:40:00,24.4,10.1,30.28,South,175,0.0,1.0,54,0.00,,,0.00,Wunderground v.1.15,2013-01-10 15:40:00,
2013-01-10 08:42:00,24.5,10.2,30.28,South,175,0.0,1.0,54,0.00,,,0.00,Wunderground v.1.15,2013-01-10 15:42:00,
2013-01-10 08:44:00,24.7,10.4,30.28,South,176,0.0,1.0,54,0.00,,,0.00,Wunderground v.1.15,2013-01-10 15:44:00,
2013-01-10 08:46:00,24.8,10.5,30.25,South,175,0.0,1.0,54,0.00,,,0.00,Wunderground v.1.15,2013-01-10 15:46:00,
2013-01-10 08:48:00,24.8,10.5,30.25,South,176,0.0,1.0,54,0.00,,,0.00,Wunderground v.1.15,2013-01-10 15:48:00,
2013-01-10 08:52:00,25.0,10.7,30.25,South,176,0.0,0.0,54,0.00,,,0.00,Wunderground v.1.15,2013-01-10 15:52:00,
2013-01-10 08:54:00,25.1,10.8,30.25,South,175,0.0,0.0,54,0.00,,,0.00,Wunderground v.1.15,2013-01-10 15:54:00,
2013-01-10 08:56:00,25.3,11.0,30.25,South,176,0.0,0.0,54,0.00,,,0.00,Wunderground v.1.15,2013-01-10 15:56:00,
2013-01-10 09:00:00,25.4,11.0,30.25,South,175,0.0,0.0,54,0.00,,,0.00,Wunderground v.1.15,2013-01-10 16:00:00,
2013-01-10 09:02:00,25.4,11.0,30.25,South,176,0.0,0.0,54,0.00,,,0.00,Wunderground v.1.15,2013-01-10 16:02:00,
2013-01-10 09:04:00,25.6,11.2,30.25,South,176,0.0,0.0,54,0.00,,,0.00,Wunderground v.1.15,2013-01-10 16:04:00,
2013-01-10 09:06:00,25.6,11.7,30.25,South,175,0.0,0.0,55,0.00,,,0.00,Wunderground v.1.15,2013-01-10 16:06:00,
2013-01-10 09:08:00,25.6,12.1,30.25,South,176,0.0,0.0,56,0.00,,,0.00,Wunderground v.1.15,2013-01-10 16:08:00,
2013-01-10 09:10:00,25.6,11.7,30.25,South,175,0.0,0.0,55,0.00,,,0.00,Wunderground v.1.15,2013-01-10 16:10:00,
2013-01-10 09:12:00,25.7,11.7,30.25,South,176,0.0,0.0,55,0.00,,,0.00,Wunderground v.1.15,2013-01-10 16:12:00,
2013-01-10 09:16:00,25.8,11.8,30.26,South,175,0.0,0.0,55,0.00,,,0.00,Wunderground v.1.15,2013-01-10 16:16:00,
2013-01-10 09:18:00,26.0,12.0,30.26,South,175,0.0,0.0,55,0.00,,,0.00,Wunderground v.1.15,2013-01-10 16:18:00,
2013-01-10 09:20:00,26.1,12.1,30.26,South,176,0.0,1.0,55,0.00,,,0.00,Wunderground v.1.15,2013-01-10 16:20:00,
2013-01-10 09:22:00,26.1,12.5,30.26,South,176,0.0,1.0,56,0.00,,,0.00,Wunderground v.1.15,2013-01-10 16:22:00,
2013-01-10 09:24:00,26.3,12.3,30.26,South,176,0.0,1.0,55,0.00,,,0.00,Wunderground v.1.15,2013-01-10 16:24:00,
2013-01-10 09:26:00,26.4,12.4,30.26,South,175,0.0,1.0,55,0.00,,,0.00,Wunderground v.1.15,2013-01-10 16:26:00,
2013-01-10 09:30:00,26.7,12.7,30.26,South,176,0.0,0.0,55,0.00,,,0.00,Wunderground v.1.15,2013-01-10 16:30:00,
2013-01-10 09:32:00,26.9,12.9,30.25,South,175,0.0,0.0,55,0.00,,,0.00,Wunderground v.1.15,2013-01-10 16:32:00,
2013-01-10 09:34:00,27.2,13.1,30.25,South,175,0.0,0.0,55,0.00,,,0.00,Wunderground v.1.15,2013-01-10 16:34:00,
2013-01-10 09:36:00,27.5,13.0,30.25,South,176,0.0,0.0,54,0.00,,,0.00,Wunderground v.1.15,2013-01-10 16:36:00,
2013-01-10 09:42:00,28.2,13.2,30.25,South,176,0.0,3.0,53,0.00,,,0.00,Wunderground v.1.15,2013-01-10 16:42:00,
2013-01-10 09:44:00,28.5,12.6,30.25,South,176,1.0,3.0,51,0.00,,,0.00,Wunderground v.1.15,2013-01-10 16:44:00,
2013-01-10 09:46:00,28.8,12.5,30.23,ESE,108,1.0,5.0,50,0.00,,,0.00,Wunderground v.1.15,2013-01-10 16:46:00,
2013-01-10 09:50:00,29.4,13.0,30.23,ESE,109,1.0,1.0,50,0.00,,,0.00,Wunderground v.1.15,2013-01-10 16:50:00,
2013-01-10 09:54:00,30.0,13.1,30.23,ESE,109,1.0,1.0,49,0.00,,,0.00,Wunderground v.1.15,2013-01-10 16:54:00,
2013-01-10 09:58:00,30.6,13.2,30.23,ESE,109,0.0,1.0,48,0.00,,,0.00,Wunderground v.1.15,2013-01-10 16:58:00,
2013-01-10 10:00:00,30.9,13.0,30.23,ESE,109,0.0,0.0,47,0.00,,,0.00,Wunderground v.1.15,2013-01-10 17:00:00,
2013-01-10 10:02:00,31.3,12.9,30.20,ESE,108,0.0,0.0,46,0.00,,,0.00,Wunderground v.1.15,2013-01-10 17:02:00,
2013-01-10 10:04:00,31.9,12.9,30.20,ESE,109,0.0,0.0,45,0.00,,,0.00,Wunderground v.1.15,2013-01-10 17:04:00,
2013-01-10 10:06:00,32.4,13.9,30.20,ESE,109,0.0,0.0,46,0.00,,,0.00,Wunderground v.1.15,2013-01-10 17:06:00,
2013-01-10 10:10:00,33.1,13.5,30.20,ESE,109,0.0,0.0,44,0.00,,,0.00,Wunderground v.1.15,2013-01-10 17:10:00,
2013-01-10 10:12:00,33.4,13.3,30.20,ESE,109,0.0,0.0,43,0.00,,,0.00,Wunderground v.1.15,2013-01-10 17:12:00,
2013-01-10 10:16:00,34.1,12.8,30.16,ENE,60,1.0,2.0,41,0.00,,,0.00,Wunderground v.1.15,2013-01-10 17:16:00,
2013-01-10 10:18:00,34.3,13.0,30.16,ENE,59,1.0,2.0,41,0.00,,,0.00,Wunderground v.1.15,2013-01-10 17:18:00,
2013-01-10 10:20:00,34.6,12.7,30.16,ENE,64,1.0,2.0,40,0.00,,,0.00,Wunderground v.1.15,2013-01-10 17:20:00,
2013-01-10 10:22:00,34.9,12.4,30.16,ESE,116,1.0,2.0,39,0.00,,,0.00,Wunderground v.1.15,2013-01-10 17:22:00,
2013-01-10 10:28:00,35.6,12.5,30.16,ESE,117,0.0,2.0,38,0.00,,,0.00,Wunderground v.1.15,2013-01-10 17:28:00,
2013-01-10 10:34:00,36.0,13.4,30.13,ENE,76,0.0,0.0,39,0.00,,,0.00,Wunderground v.1.15,2013-01-10 17:34:00,
2013-01-10 10:38:00,36.5,13.9,30.13,ENE,76,0.0,0.0,39,0.00,,,0.00,Wunderground v.1.15,2013-01-10 17:38:00,
2013-01-10 10:40:00,36.8,12.9,30.13,ENE,76,0.0,0.0,37,0.00,,,0.00,Wunderground v.1.15,2013-01-10 17:40:00,
2013-01-10 10:42:00,37.0,11.8,30.13,ENE,72,0.0,2.0,35,0.00,,,0.00,Wunderground v.1.15,2013-01-10 17:42:00,
2013-01-10 10:46:00,37.6,13.6,30.12,SSE,150,0.0,2.0,37,0.00,,,0.00,Wunderground v.1.15,2013-01-10 17:46:00,
2013-01-10 10:48:00,37.8,13.2,30.12,SSE,150,0.0,2.0,36,0.00,,,0.00,Wunderground v.1.15,2013-01-10 17:48:00,
2013-01-10 10:50:00,37.9,12.6,30.12,SSE,150,0.0,0.0,35,0.00,,,0.00,Wunderground v.1.15,2013-01-10 17:50:00,
2013-01-10 10:52:00,38.0,12.7,30.12,SW,232,0.0,2.0,35,0.00,,,0.00,Wunderground v.1.15,2013-01-10 17:52:00,
2013-01-10 10:54:00,38.2,14.2,30.12,WSW,239,0.0,2.0,37,0.00,,,0.00,Wunderground v.1.15,2013-01-10 17:54:00,
2013-01-10 10:56:00,38.5,14.4,30.12,WSW,239,0.0,2.0,37,0.00,,,0.00,Wunderground v.1.15,2013-01-10 17:56:00,
2013-01-10 10:58:00,38.6,15.1,30.12,NW,315,0.0,4.0,38,0.00,,,0.00,Wunderground v.1.15,2013-01-10 17:58:00,
2013-01-10 11:00:00,38.3,14.3,30.12,WNW,300,1.0,4.0,37,0.00,,,0.00,Wunderground v.1.15,2013-01-10 18:00:00,
2013-01-10 11:06:00,37.3,12.1,30.12,NNE,17,2.0,4.0,35,0.00,,,0.00,Wunderground v.1.15,2013-01-10 18:06:00,
2013-01-10 11:08:00,37.0,12.5,30.12,North,355,3.0,4.0,36,0.00,,,0.00,Wunderground v.1.15,2013-01-10 18:08:00,
2013-01-10 11:10:00,37.0,14.3,30.12,WNW,296,2.0,2.0,39,0.00,,,0.00,Wunderground v.1.15,2013-01-10 18:10:00,
2013-01-10 11:12:00,37.0,12.5,30.12,North,32767,2.0,2.0,36,0.00,,,0.00,Wunderground v.1.15,2013-01-10 18:12:00,
2013-01-10 11:14:00,36.9,13.0,30.12,NNE,17,2.0,4.0,37,0.00,,,0.00,Wunderground v.1.15,2013-01-10 18:14:00,
2013-01-10 11:18:00,36.8,13.5,30.10,NW,305,2.0,4.0,38,0.00,,,0.00,Wunderground v.1.15,2013-01-10 18:18:00,
2013-01-10 11:22:00,36.8,13.5,30.10,NW,304,2.0,3.0,38,0.00,,,0.00,Wunderground v.1.15,2013-01-10 18:22:00,
2013-01-10 11:24:00,36.8,13.5,30.10,WNW,298,2.0,3.0,38,0.00,,,0.00,Wunderground v.1.15,2013-01-10 18:24:00,
2013-01-10 11:26:00,36.9,13.6,30.10,NNW,346,1.0,3.0,38,0.00,,,0.00,Wunderground v.1.15,2013-01-10 18:26:00,
2013-01-10 11:28:00,37.0,13.7,30.10,NNW,345,1.0,3.0,38,0.00,,,0.00,Wunderground v.1.15,2013-01-10 18:28:00,
2013-01-10 11:32:00,37.2,13.9,30.09,NW,319,1.0,1.0,38,0.00,,,0.00,Wunderground v.1.15,2013-01-10 18:32:00,
2013-01-10 11:34:00,37.5,15.9,30.09,NW,319,1.0,1.0,41,0.00,,,0.00,Wunderground v.1.15,2013-01-10 18:34:00,
2013-01-10 11:36:00,37.9,14.5,30.09,WSW,258,1.0,1.0,38,0.00,,,0.00,Wunderground v.1.15,2013-01-10 18:36:00,
2013-01-10 11:40:00,38.9,14.2,30.09,North,11,1.0,3.0,36,0.00,,,0.00,Wunderground v.1.15,2013-01-10 18:40:00,
2013-01-10 11:42:00,39.2,14.4,30.09,North,11,1.0,3.0,36,0.00,,,0.00,Wunderground v.1.15,2013-01-10 18:42:00,
2013-01-10 11:46:00,40.2,16.0,30.07,WSW,244,1.0,5.0,37,0.00,,,0.00,Wunderground v.1.15,2013-01-10 18:46:00,
2013-01-10 11:48:00,40.3,14.8,30.07,North,355,1.0,8.0,35,0.00,,,0.00,Wunderground v.1.15,2013-01-10 18:48:00,
2013-01-10 11:50:00,39.6,14.8,30.07,NNE,22,2.0,4.0,36,0.00,,,0.00,Wunderground v.1.15,2013-01-10 18:50:00,
2013-01-10 11:52:00,38.9,14.8,30.07,NNW,346,2.0,4.0,37,0.00,,,0.00,Wunderground v.1.15,2013-01-10 18:52:00,
2013-01-10 11:54:00,38.5,15.7,30.07,West,265,2.0,4.0,39,0.00,,,0.00,Wunderground v.1.15,2013-01-10 18:54:00,
2013-01-10 11:56:00,38.5,16.8,30.07,NNW,348,2.0,4.0,41,0.00,,,0.00,Wunderground v.1.15,2013-01-10 18:56:00,
2013-01-10 11:58:00,38.3,14.3,30.07,NNE,16,2.0,4.0,37,0.00,,,0.00,Wunderground v.1.15,2013-01-10 18:58:00,
2013-01-10 12:00:00,38.5,13.8,30.07,NNE,17,1.0,2.0,36,0.00,,,0.00,Wunderground v.1.15,2013-01-10 19:00:00,
2013-01-10 12:02:00,38.5,13.8,30.07,NW,324,1.0,3.0,36,0.00,,,0.00,Wunderground v.1.15,2013-01-10 19:02:00,
2013-01-10 12:06:00,38.2,12.3,30.07,WNW,300,2.0,3.0,34,0.00,,,0.00,Wunderground v.1.15,2013-01-10 19:06:00,
2013-01-10 12:08:00,38.0,13.4,30.07,North,32767,2.0,3.0,36,0.00,,,0.00,Wunderground v.1.15,2013-01-10 19:08:00,
2013-01-10 12:10:00,38.0,13.4,30.07,West,259,2.0,2.0,36,0.00,,,0.00,Wunderground v.1.15,2013-01-10 19:10:00,
2013-01-10 12:12:00,38.3,14.3,30.07,West,259,1.0,2.0,37,0.00,,,0.00,Wunderground v.1.15,2013-01-10 19:12:00,
2013-01-10 12:14:00,38.5,13.8,30.07,NNE,28,1.0,2.0,36,0.00,,,0.00,Wunderground v.1.15,2013-01-10 19:14:00,
2013-01-10 12:16:00,38.3,13.0,30.03,NNE,26,1.0,2.0,35,0.00,,,0.00,Wunderground v.1.15,2013-01-10 19:16:00,
2013-01-10 12:18:00,38.3,13.0,30.03,NNE,22,0.0,3.0,35,0.00,,,0.00,Wunderground v.1.15,2013-01-10 19:18:00,
2013-01-10 12:20:00,38.3,13.6,30.03,NNE,23,1.0,1.0,36,0.00,,,0.00,Wunderground v.1.15,2013-01-10 19:20:00,
2013-01-10 12:22:00,38.2,14.2,30.03,ENE,76,1.0,1.0,37,0.00,,,0.00,Wunderground v.1.15,2013-01-10 19:22:00,
2013-01-10 12:26:00,38.3,14.3,30.03,ENE,74,1.0,1.0,37,0.00,,,0.00,Wunderground v.1.15,2013-01-10 19:26:00,
2013-01-10 12:28:00,38.5,14.4,30.03,ENE,77,1.0,2.0,37,0.00,,,0.00,Wunderground v.1.15,2013-01-10 19:28:00,
2013-01-10 12:30:00,38.8,15.3,30.03,ENE,77,0.0,0.0,38,0.00,,,0.00,Wunderground v.1.15,2013-01-10 19:30:00,
2013-01-10 12:36:00,39.1,16.8,30.03,ENE,77,0.0,2.0,40,0.00,,,0.00,Wunderground v.1.15,2013-01-10 19:36:00,
2013-01-10 12:38:00,38.9,17.2,30.03,SE,128,1.0,3.0,41,0.00,,,0.00,Wunderground v.1.15,2013-01-10 19:38:00,
2013-01-10 12:42:00,38.2,17.1,30.03,SSE,153,1.0,4.0,42,0.00,,,0.00,Wunderground v.1.15,2013-01-10 19:42:00,
2013-01-10 12:44:00,37.8,18.3,30.03,SSE,153,2.0,4.0,45,0.00,,,0.00,Wunderground v.1.15,2013-01-10 19:44:00,
2013-01-10 12:48:00,37.5,18.6,30.01,South,171,2.0,4.0,46,0.00,,,0.00,Wunderground v.1.15,2013-01-10 19:48:00,
2013-01-10 12:50:00,37.5,18.6,30.01,South,171,1.0,1.0,46,0.00,,,0.00,Wunderground v.1.15,2013-01-10 19:50:00,
2013-01-10 12:56:00,37.5,18.6,30.01,South,170,0.0,3.0,46,0.00,,,0.00,Wunderground v.1.15,2013-01-10 19:56:00,
2013-01-10 12:58:00,37.3,18.4,30.01,SE,126,1.0,3.0,46,0.00,,,0.00,Wunderground v.1.15,2013-01-10 19:58:00,
2013-01-10 13:04:00,37.6,18.7,30.01,SE,126,1.0,1.0,46,0.00,,,0.00,Wunderground v.1.15,2013-01-10 20:04:00,
2013-01-10 13:06:00,37.8,18.8,30.01,SE,126,1.0,2.0,46,0.00,,,0.00,Wunderground v.1.15,2013-01-10 20:06:00,
2013-01-10 13:10:00,37.9,18.9,30.01,SE,126,1.0,1.0,46,0.00,,,0.00,Wunderground v.1.15,2013-01-10 20:10:00,
2013-01-10 13:12:00,37.9,18.9,30.01,SE,135,1.0,1.0,46,0.00,,,0.00,Wunderground v.1.15,2013-01-10 20:12:00,
2013-01-10 13:14:00,37.9,18.9,30.01,SE,134,1.0,1.0,46,0.00,,,0.00,Wunderground v.1.15,2013-01-10 20:14:00,
2013-01-10 13:20:00,37.8,19.3,30.00,SE,135,0.0,0.0,47,0.00,,,0.00,Wunderground v.1.15,2013-01-10 20:20:00,
2013-01-10 13:24:00,37.8,19.8,30.00,SE,135,0.0,0.0,48,0.00,,,0.00,Wunderground v.1.15,2013-01-10 20:24:00,
2013-01-10 13:26:00,37.9,18.4,30.00,SE,135,0.0,0.0,45,0.00,,,0.00,Wunderground v.1.15,2013-01-10 20:26:00,
2013-01-10 13:32:00,38.5,18.4,29.99,SE,135,0.0,0.0,44,0.00,,,0.00,Wunderground v.1.15,2013-01-10 20:32:00,
2013-01-10 13:34:00,38.8,18.7,29.99,NE,38,1.0,1.0,44,0.00,,,0.00,Wunderground v.1.15,2013-01-10 20:34:00,
2013-01-10 13:40:00,39.5,18.8,29.99,East,86,1.0,5.0,43,0.00,,,0.00,Wunderground v.1.15,2013-01-10 20:40:00,
2013-01-10 13:42:00,39.6,18.4,29.99,ENE,66,1.0,3.0,42,0.00,,,0.00,Wunderground v.1.15,2013-01-10 20:42:00,
2013-01-10 13:44:00,39.8,18.5,29.99,NE,48,1.0,3.0,42,0.00,,,0.00,Wunderground v.1.15,2013-01-10 20:44:00,
2013-01-10 13:46:00,39.9,19.2,29.96,NE,40,1.0,3.0,43,0.00,,,0.00,Wunderground v.1.15,2013-01-10 20:46:00,
2013-01-10 13:50:00,40.3,19.0,29.96,NE,45,2.0,3.0,42,0.00,,,0.00,Wunderground v.1.15,2013-01-10 20:50:00,
2013-01-10 13:52:00,40.5,18.6,29.96,NE,46,1.0,1.0,41,0.00,,,0.00,Wunderground v.1.15,2013-01-10 20:52:00,
2013-01-10 13:58:00,41.3,16.9,29.96,East,84,1.0,2.0,37,0.00,,,0.00,Wunderground v.1.15,2013-01-10 20:58:00,
2013-01-10 14:00:00,41.6,17.8,29.96,East,80,1.0,1.0,38,0.00,,,0.00,Wunderground v.1.15,2013-01-10 21:00:00,
2013-01-10 14:02:00,41.6,17.2,29.94,ENE,69,1.0,1.0,37,0.00,,,0.00,Wunderground v.1.15,2013-01-10 21:02:00,
2013-01-10 14:04:00,41.8,17.4,29.94,NNE,17,0.0,1.0,37,0.00,,,0.00,Wunderground v.1.15,2013-01-10 21:04:00,
2013-01-10 14:08:00,42.1,17.7,29.94,ENE,65,1.0,3.0,37,0.00,,,0.00,Wunderground v.1.15,2013-01-10 21:08:00,
2013-01-10 14:10:00,42.3,15.9,29.94,NE,55,1.0,1.0,34,0.00,,,0.00,Wunderground v.1.15,2013-01-10 21:10:00,
2013-01-10 14:12:00,42.5,16.1,29.94,ENE,67,1.0,3.0,34,0.00,,,0.00,Wunderground v.1.15,2013-01-10 21:12:00,
2013-01-10 14:14:00,42.8,17.0,29.94,NE,36,1.0,3.0,35,0.00,,,0.00,Wunderground v.1.15,2013-01-10 21:14:00,
2013-01-10 14:18:00,43.1,15.9,29.92,ENE,72,1.0,3.0,33,0.00,,,0.00,Wunderground v.1.15,2013-01-10 21:18:00,
2013-01-10 14:22:00,43.3,15.4,29.92,NNE,25,1.0,2.0,32,0.00,,,0.00,Wunderground v.1.15,2013-01-10 21:22:00,
2013-01-10 14:28:00,44.1,15.3,29.92,NNE,28,2.0,2.0,31,0.00,,,0.00,Wunderground v.1.15,2013-01-10 21:28:00,
2013-01-10 14:30:00,44.5,16.4,29.92,NNE,28,1.0,1.0,32,0.00,,,0.00,Wunderground v.1.15,2013-01-10 21:30:00,
2013-01-10 14:32:00,44.8,16.7,29.89,NNE,30,1.0,1.0,32,0.00,,,0.00,Wunderground v.1.15,2013-01-10 21:32:00,
2013-01-10 14:34:00,45.2,16.3,29.89,NNE,29,1.0,1.0,31,0.00,,,0.00,Wunderground v.1.15,2013-01-10 21:34:00,
2013-01-10 14:36:00,45.5,13.4,29.89,NNE,30,1.0,1.0,27,0.00,,,0.00,Wunderground v.1.15,2013-01-10 21:36:00,
2013-01-10 14:42:00,47.3,15.8,29.89,SE,131,1.0,1.0,28,0.00,,,0.00,Wunderground v.1.15,2013-01-10 21:42:00,
2013-01-10 14:44:00,47.6,16.1,29.89,SSE,155,1.0,2.0,28,0.00,,,0.00,Wunderground v.1.15,2013-01-10 21:44:00,
2013-01-10 14:48:00,48.2,14.9,29.87,South,191,2.0,7.0,26,0.00,,,0.00,Wunderground v.1.15,2013-01-10 21:48:00,
2013-01-10 14:50:00,48.3,15.8,29.87,SSW,194,3.0,3.0,27,0.00,,,0.00,Wunderground v.1.15,2013-01-10 21:50:00,
2013-01-10 14:54:00,48.5,15.1,29.87,SSW,202,3.0,5.0,26,0.00,,,0.00,Wunderground v.1.15,2013-01-10 21:54:00,
2013-01-10 14:58:00,48.2,14.9,29.87,SSE,161,3.0,5.0,26,0.00,,,0.00,Wunderground v.1.15,2013-01-10 21:58:00,
2013-01-10 15:02:00,47.9,15.5,29.87,SW,235,2.0,2.0,27,0.00,,,0.00,Wunderground v.1.15,2013-01-10 22:02:00,
2013-01-10 15:06:00,46.8,16.2,29.87,SSW,195,2.0,2.0,29,0.00,,,0.00,Wunderground v.1.15,2013-01-10 22:06:00,
2013-01-10 15:10:00,46.4,15.0,29.87,SSW,195,0.0,2.0,28,0.00,,,0.00,Wunderground v.1.15,2013-01-10 22:10:00,
2013-01-10 15:12:00,46.4,15.0,29.87,SSW,195,0.0,0.0,28,0.00,,,0.00,Wunderground v.1.15,2013-01-10 22:12:00,
2013-01-10 15:16:00,46.2,17.2,29.89,SSW,195,0.0,0.0,31,0.00,,,0.00,Wunderground v.1.15,2013-01-10 22:16:00,
2013-01-10 15:22:00,46.1,17.1,29.89,SSW,195,0.0,0.0,31,0.00,,,0.00,Wunderground v.1.15,2013-01-10 22:22:00,
2013-01-10 15:24:00,46.1,16.3,29.89,SSW,195,0.0,0.0,30,0.00,,,0.00,Wunderground v.1.15,2013-01-10 22:24:00,
2013-01-10 15:28:00,46.1,15.6,29.89,SSW,195,0.0,0.0,29,0.00,,,0.00,Wunderground v.1.15,2013-01-10 22:28:00,
2013-01-10 15:32:00,46.1,17.1,29.88,SSW,195,0.0,0.0,31,0.00,,,0.00,Wunderground v.1.15,2013-01-10 22:32:00,
2013-01-10 15:34:00,46.0,14.7,29.88,SSW,195,0.0,0.0,28,0.00,,,0.00,Wunderground v.1.15,2013-01-10 22:34:00,
2013-01-10 15:38:00,46.1,15.6,29.88,SSW,195,0.0,0.0,29,0.00,,,0.00,Wunderground v.1.15,2013-01-10 22:38:00,
2013-01-10 15:40:00,46.1,16.3,29.88,SSW,195,0.0,0.0,30,0.00,,,0.00,Wunderground v.1.15,2013-01-10 22:40:00,
2013-01-10 15:44:00,46.1,13.9,29.88,SSW,195,0.0,2.0,27,0.00,,,0.00,Wunderground v.1.15,2013-01-10 22:44:00,
2013-01-10 15:46:00,46.2,14.8,29.88,SSW,195,0.0,2.0,28,0.00,,,0.00,Wunderground v.1.15,2013-01-10 22:46:00,
2013-01-10 15:52:00,46.4,15.0,29.88,SSW,195,0.0,0.0,28,0.00,,,0.00,Wunderground v.1.15,2013-01-10 22:52:00,
2013-01-10 15:54:00,46.5,14.3,29.88,SSW,195,0.0,0.0,27,0.00,,,0.00,Wunderground v.1.15,2013-01-10 22:54:00,
2013-01-10 15:58:00,46.5,15.9,29.88,SSW,195,0.0,2.0,29,0.00,,,0.00,Wunderground v.1.15,2013-01-10 22:58:00,
2013-01-10 16:00:00,46.2,16.4,29.88,North,350,1.0,3.0,30,0.00,,,0.00,Wunderground v.1.15,2013-01-10 23:00:00,
2013-01-10 16:06:00,45.2,17.8,29.88,North,350,1.0,3.0,33,0.00,,,0.00,Wunderground v.1.15,2013-01-10 23:06:00,
2013-01-10 16:10:00,44.6,18.6,29.88,ESE,109,1.0,4.0,35,0.00,,,0.00,Wunderground v.1.15,2013-01-10 23:10:00,
2013-01-10 16:14:00,43.9,16.6,29.88,ENE,61,1.0,4.0,33,0.00,,,0.00,Wunderground v.1.15,2013-01-10 23:14:00,
2013-01-10 16:16:00,44.2,15.4,29.89,NE,42,2.0,4.0,31,0.00,,,0.00,Wunderground v.1.15,2013-01-10 23:16:00,
2013-01-10 16:20:00,44.5,17.8,29.89,NNE,30,2.0,2.0,34,0.00,,,0.00,Wunderground v.1.15,2013-01-10 23:20:00,
2013-01-10 16:22:00,44.5,16.4,29.89,NNE,30,1.0,2.0,32,0.00,,,0.00,Wunderground v.1.15,2013-01-10 23:22:00,
2013-01-10 16:26:00,44.5,15.7,29.89,NE,51,1.0,5.0,31,0.00,,,0.00,Wunderground v.1.15,2013-01-10 23:26:00,
2013-01-10 16:28:00,44.6,17.2,29.89,SE,141,2.0,5.0,33,0.00,,,0.00,Wunderground v.1.15,2013-01-10 23:28:00,
2013-01-10 16:30:00,44.9,18.2,29.89,SSE,161,2.0,2.0,34,0.00,,,0.00,Wunderground v.1.15,2013-01-10 23:30:00,
2013-01-10 16:34:00,45.2,18.5,29.87,South,171,3.0,9.0,34,0.00,,,0.00,Wunderground v.1.15,2013-01-10 23:34:00,
2013-01-10 16:36:00,45.1,18.4,29.87,South,187,3.0,9.0,34,0.00,,,0.00,Wunderground v.1.15,2013-01-10 23:36:00,
2013-01-10 16:38:00,44.9,19.5,29.87,South,187,2.0,9.0,36,0.00,,,0.00,Wunderground v.1.15,2013-01-10 23:38:00,
2013-01-10 16:42:00,44.2,18.2,29.87,SW,221,3.0,3.0,35,0.00,,,0.00,Wunderground v.1.15,2013-01-10 23:42:00,
2013-01-10 16:44:00,43.8,19.2,29.87,South,177,2.0,3.0,37,0.00,,,0.00,Wunderground v.1.15,2013-01-10 23:44:00,
2013-01-10 16:48:00,43.6,17.7,29.89,South,177,2.0,3.0,35,0.00,,,0.00,Wunderground v.1.15,2013-01-10 23:48:00,
2013-01-10 16:52:00,43.6,19.6,29.89,South,178,1.0,1.0,38,0.00,,,0.00,Wunderground v.1.15,2013-01-10 23:52:00,
2013-01-10 16:54:00,43.8,20.4,29.89,South,178,1.0,5.0,39,0.00,,,0.00,Wunderground v.1.15,2013-01-10 23:54:00,
2013-01-10 16:56:00,43.9,20.5,29.89,SW,236,1.0,5.0,39,0.00,,,0.00,Wunderground v.1.15,2013-01-10 23:56:00,
2013-01-10 16:58:00,44.2,18.9,29.89,SW,232,2.0,5.0,36,0.00,,,0.00,Wunderground v.1.15,2013-01-10 23:58:00,
2013-01-10 17:02:00,45.2,19.1,29.87,SW,221,4.0,4.0,35,0.00,,,0.00,Wunderground v.1.15,2013-01-11 00:02:00,
2013-01-10 17:04:00,45.2,19.8,29.87,SSW,211,4.0,4.0,36,0.00,,,0.00,Wunderground v.1.15,2013-01-11 00:04:00,
2013-01-10 17:08:00,45.1,20.3,29.87,SSW,207,4.0,6.0,37,0.00,,,0.00,Wunderground v.1.15,2013-01-11 00:08:00,
2013-01-10 17:12:00,45.1,20.3,29.87,WSW,241,6.0,9.0,37,0.00,,,0.00,Wunderground v.1.15,2013-01-11 00:12:00,
2013-01-10 17:14:00,45.2,20.4,29.87,South,191,5.0,9.0,37,0.00,,,0.00,Wunderground v.1.15,2013-01-11 00:14:00,
2013-01-10 17:16:00,45.2,20.4,29.86,SSW,194,6.0,9.0,37,0.00,,,0.00,Wunderground v.1.15,2013-01-11 00:16:00,
2013-01-10 17:20:00,44.8,21.3,29.86,South,186,4.0,4.0,39,0.00,,,0.00,Wunderground v.1.15,2013-01-11 00:20:00,
2013-01-10 17:24:00,44.5,21.0,29.86,SSW,194,2.0,4.0,39,0.00,,,0.00,Wunderground v.1.15,2013-01-11 00:24:00,
2013-01-10 17:26:00,44.5,21.0,29.86,SW,215,2.0,4.0,39,0.00,,,0.00,Wunderground v.1.15,2013-01-11 00:26:00,
2013-01-10 17:32:00,44.5,21.6,29.85,South,188,2.0,11.0,40,0.00,,,0.00,Wunderground v.1.15,2013-01-11 00:32:00,
2013-01-10 17:36:00,44.3,21.5,29.85,SSW,203,3.0,11.0,40,0.00,,,0.00,Wunderground v.1.15,2013-01-11 00:36:00,
2013-01-10 17:38:00,44.6,20.5,29.85,SE,138,3.0,11.0,38,0.00,,,0.00,Wunderground v.1.15,2013-01-11 00:38:00,
2013-01-10 17:40:00,44.6,21.1,29.85,SSW,192,4.0,6.0,39,0.00,,,0.00,Wunderground v.1.15,2013-01-11 00:40:00,
2013-01-10 17:42:00,44.5,21.0,29.85,South,186,5.0,6.0,39,0.00,,,0.00,Wunderground v.1.15,2013-01-11 00:42:00,
2013-01-10 17:46:00,44.1,22.4,29.86,SSW,211,5.0,6.0,42,0.00,,,0.00,Wunderground v.1.15,2013-01-11 00:46:00,
2013-01-10 17:48:00,43.8,22.2,29.86,SSW,211,5.0,6.0,42,0.00,,,0.00,Wunderground v.1.15,2013-01-11 00:48:00,
2013-01-10 17:54:00,43.6,22.5,29.86,SW,219,4.0,5.0,43,0.00,,,0.00,Wunderground v.1.15,2013-01-11 00:54:00,
2013-01-10 17:58:00,43.6,22.5,29.86,SSW,212,4.0,7.0,43,0.00,,,0.00,Wunderground v.1.15,2013-01-11 00:58:00,
2013-01-10 18:02:00,43.3,22.8,29.86,South,184,5.0,6.0,44,0.00,,,0.00,Wunderground v.1.15,2013-01-11 01:02:00,
2013-01-10 18:04:00,43.3,22.8,29.86,SE,146,5.0,14.0,44,0.00,,,0.00,Wunderground v.1.15,2013-01-11 01:04:00,
2013-01-10 18:06:00,43.3,22.8,29.86,South,174,6.0,14.0,44,0.00,,,0.00,Wunderground v.1.15,2013-01-11 01:06:00,
2013-01-10 18:10:00,43.2,23.3,29.86,SSE,167,7.0,7.0,45,0.00,,,0.00,Wunderground v.1.15,2013-01-11 01:10:00,
2013-01-10 18:14:00,43.1,23.7,29.86,SSW,195,6.0,7.0,46,0.00,,,0.00,Wunderground v.1.15,2013-01-11 01:14:00,
2013-01-10 18:16:00,43.1,23.7,29.84,South,169,5.0,7.0,46,0.00,,,0.00,Wunderground v.1.15,2013-01-11 01:16:00,
2013-01-10 18:18:00,42.9,23.5,29.84,South,169,4.0,7.0,46,0.00,,,0.00,Wunderground v.1.15,2013-01-11 01:18:00,
2013-01-10 18:20:00,42.6,23.8,29.84,South,169,3.0,3.0,47,0.00,,,0.00,Wunderground v.1.15,2013-01-11 01:20:00,
2013-01-10 18:22:00,42.5,23.7,29.84,South,169,2.0,3.0,47,0.00,,,0.00,Wunderground v.1.15,2013-01-11 01:22:00,
2013-01-10 18:26:00,42.2,23.4,29.84,SSE,168,0.0,3.0,47,0.00,,,0.00,Wunderground v.1.15,2013-01-11 01:26:00,
2013-01-10 18:30:00,42.3,23.0,29.84,SE,126,1.0,1.0,46,0.00,,,0.00,Wunderground v.1.15,2013-01-11 01:30:00,
2013-01-10 18:32:00,42.3,23.0,29.84,SE,145,1.0,1.0,46,0.00,,,0.00,Wunderground v.1.15,2013-01-11 01:32:00,
2013-01-10 18:36:00,42.3,23.5,29.84,ESE,114,1.0,2.0,47,0.00,,,0.00,Wunderground v.1.15,2013-01-11 01:36:00,
2013-01-10 18:38:00,42.2,23.9,29.84,ESE,114,1.0,2.0,48,0.00,,,0.00,Wunderground v.1.15,2013-01-11 01:38:00,
2013-01-10 18:40:00,42.2,23.9,29.84,ESE,114,1.0,1.0,48,0.00,,,0.00,Wunderground v.1.15,2013-01-11 01:40:00,
2013-01-10 18:44:00,41.8,24.0,29.84,ESE,105,1.0,3.0,49,0.00,,,0.00,Wunderground v.1.15,2013-01-11 01:44:00,
2013-01-10 18:46:00,41.8,24.0,29.83,ESE,105,1.0,3.0,49,0.00,,,0.00,Wunderground v.1.15,2013-01-11 01:46:00,
2013-01-10 18:48:00,41.8,23.5,29.83,ESE,105,1.0,3.0,48,0.00,,,0.00,Wunderground v.1.15,2013-01-11 01:48:00,
2013-01-10 18:50:00,41.6,23.3,29.83,ESE,105,1.0,1.0,48,0.00,,,0.00,Wunderground v.1.15,2013-01-11 01:50:00,
2013-01-10 18:54:00,41.5,23.7,29.83,ESE,105,0.0,1.0,49,0.00,,,0.00,Wunderground v.1.15,2013-01-11 01:54:00,
2013-01-10 19:02:00,40.8,24.1,29.82,ENE,63,1.0,1.0,51,0.00,,,0.00,Wunderground v.1.15,2013-01-11 02:02:00,
2013-01-10 19:04:00,40.5,23.8,29.82,ENE,71,1.0,3.0,51,0.00,,,0.00,Wunderground v.1.15,2013-01-11 02:04:00,
2013-01-10 19:06:00,40.2,24.0,29.82,NE,51,1.0,3.0,52,0.00,,,0.00,Wunderground v.1.15,2013-01-11 02:06:00,
2013-01-10 19:08:00,39.8,23.6,29.82,ENE,73,2.0,3.0,52,0.00,,,0.00,Wunderground v.1.15,2013-01-11 02:08:00,
2013-01-10 19:10:00,39.5,23.8,29.82,NE,53,2.0,3.0,53,0.00,,,0.00,Wunderground v.1.15,2013-01-11 02:10:00,
2013-01-10 19:12:00,39.2,23.5,29.82,ENE,67,2.0,4.0,53,0.00,,,0.00,Wunderground v.1.15,2013-01-11 02:12:00,
2013-01-10 19:14:00,38.9,23.2,29.82,ENE,65,3.0,4.0,53,0.00,,,0.00,Wunderground v.1.15,2013-01-11 02:14:00,
2013-01-10 19:16:00,38.8,23.1,29.82,ENE,58,3.0,4.0,53,0.00,,,0.00,Wunderground v.1.15,2013-01-11 02:16:00,
2013-01-10 19:18:00,38.5,23.3,29.82,ENE,58,2.0,4.0,54,0.00,,,0.00,Wunderground v.1.15,2013-01-11 02:18:00,
2013-01-10 19:20:00,38.3,23.1,29.82,ENE,58,2.0,4.0,54,0.00,,,0.00,Wunderground v.1.15,2013-01-11 02:20:00,
2013-01-10 19:22:00,38.2,22.6,29.82,ENE,72,1.0,3.0,53,0.00,,,0.00,Wunderground v.1.15,2013-01-11 02:22:00,
2013-01-10 19:26:00,38.0,22.8,29.82,NE,47,1.0,3.0,54,0.00,,,0.00,Wunderground v.1.15,2013-01-11 02:26:00,
2013-01-10 19:32:00,37.6,22.0,29.82,NE,47,1.0,1.0,53,0.00,,,0.00,Wunderground v.1.15,2013-01-11 02:32:00,
2013-01-10 19:34:00,37.5,21.9,29.82,NE,46,1.0,1.0,53,0.00,,,0.00,Wunderground v.1.15,2013-01-11 02:34:00,
2013-01-10 19:36:00,37.3,21.3,29.82,NE,46,0.0,1.0,52,0.00,,,0.00,Wunderground v.1.15,2013-01-11 02:36:00,
2013-01-10 19:40:00,37.2,21.6,29.82,NE,46,0.0,1.0,53,0.00,,,0.00,Wunderground v.1.15,2013-01-11 02:40:00,
2013-01-10 19:42:00,37.0,21.4,29.82,NE,46,0.0,0.0,53,0.00,,,0.00,Wunderground v.1.15,2013-01-11 02:42:00,
2013-01-10 19:46:00,36.8,20.8,29.83,ENE,70,0.0,3.0,52,0.00,,,0.00,Wunderground v.1.15,2013-01-11 02:46:00,
2013-01-10 19:48:00,36.8,20.3,29.83,ENE,69,1.0,3.0,51,0.00,,,0.00,Wunderground v.1.15,2013-01-11 02:48:00,
2013-01-10 19:50:00,36.8,20.3,29.83,ENE,69,1.0,3.0,51,0.00,,,0.00,Wunderground v.1.15,2013-01-11 02:50:00,
2013-01-10 19:56:00,36.5,21.0,29.83,ENE,69,1.0,1.0,53,0.00,,,0.00,Wunderground v.1.15,2013-01-11 02:56:00,
2013-01-10 20:02:00,36.2,21.1,29.82,ENE,69,0.0,0.0,54,0.00,,,0.00,Wunderground v.1.15,2013-01-11 03:02:00,
2013-01-10 20:04:00,36.0,21.4,29.82,ENE,69,0.0,0.0,55,0.00,,,0.00,Wunderground v.1.15,2013-01-11 03:04:00,
2013-01-10 20:06:00,35.9,21.3,29.82,ENE,69,0.0,0.0,55,0.00,,,0.00,Wunderground v.1.15,2013-01-11 03:06:00,
2013-01-10 20:12:00,35.8,21.6,29.82,ENE,69,0.0,0.0,56,0.00,,,0.00,Wunderground v.1.15,2013-01-11 03:12:00,
2013-01-10 20:14:00,35.6,21.9,29.82,ENE,69,0.0,0.0,57,0.00,,,0.00,Wunderground v.1.15,2013-01-11 03:14:00,
2013-01-10 20:18:00,35.5,21.8,29.81,ENE,69,0.0,0.0,57,0.00,,,0.00,Wunderground v.1.15,2013-01-11 03:18:00,
2013-01-10 20:24:00,35.3,22.0,29.81,ENE,69,0.0,0.0,58,0.00,,,0.00,Wunderground v.1.15,2013-01-11 03:24:00,
2013-01-10 20:28:00,35.2,21.9,29.81,ENE,69,0.0,0.0,58,0.00,,,0.00,Wunderground v.1.15,2013-01-11 03:28:00,
2013-01-10 20:32:00,34.9,22.0,29.81,ENE,69,0.0,0.0,59,0.00,,,0.00,Wunderground v.1.15,2013-01-11 03:32:00,
2013-01-10 20:34:00,34.7,22.2,29.81,ENE,69,0.0,0.0,60,0.00,,,0.00,Wunderground v.1.15,2013-01-11 03:34:00,
2013-01-10 20:38:00,34.6,22.1,29.81,ENE,69,0.0,1.0,60,0.00,,,0.00,Wunderground v.1.15,2013-01-11 03:38:00,
2013-01-10 20:42:00,34.3,22.2,29.81,ENE,69,0.0,0.0,61,0.00,,,0.00,Wunderground v.1.15,2013-01-11 03:42:00,
2013-01-10 20:44:00,34.1,22.0,29.81,ENE,69,0.0,0.0,61,0.00,,,0.00,Wunderground v.1.15,2013-01-11 03:44:00,
2013-01-10 20:48:00,34.3,22.2,29.81,SSW,213,0.0,1.0,61,0.00,,,0.00,Wunderground v.1.15,2013-01-11 03:48:00,
2013-01-10 20:50:00,34.3,22.6,29.81,SSW,213,0.0,1.0,62,0.00,,,0.00,Wunderground v.1.15,2013-01-11 03:50:00,
2013-01-10 20:54:00,34.4,21.5,29.81,SSW,213,0.0,1.0,59,0.00,,,0.00,Wunderground v.1.15,2013-01-11 03:54:00,
2013-01-10 20:56:00,34.7,21.4,29.81,SSW,213,0.0,1.0,58,0.00,,,0.00,Wunderground v.1.15,2013-01-11 03:56:00,
2013-01-10 21:01:00,35.0,21.7,29.79,SSW,213,0.0,0.0,58,0.00,,,0.00,Wunderground v.1.15,2013-01-11 04:01:00,
2013-01-10 21:02:00,35.2,21.9,29.79,ESE,115,0.0,2.0,58,0.00,,,0.00,Wunderground v.1.15,2013-01-11 04:02:00,
2013-01-10 21:08:00,34.9,21.6,29.79,ESE,115,0.0,2.0,58,0.00,,,0.00,Wunderground v.1.15,2013-01-11 04:08:00,
2013-01-10 21:10:00,34.9,21.6,29.79,ESE,115,0.0,0.0,58,0.00,,,0.00,Wunderground v.1.15,2013-01-11 04:10:00,
2013-01-10 21:12:00,34.7,21.8,29.79,ESE,115,0.0,0.0,59,0.00,,,0.00,Wunderground v.1.15,2013-01-11 04:12:00,
2013-01-10 21:14:00,34.6,21.7,29.79,ESE,115,0.0,0.0,59,0.00,,,0.00,Wunderground v.1.15,2013-01-11 04:14:00,
2013-01-10 21:18:00,34.9,21.2,29.75,South,184,1.0,1.0,57,0.00,,,0.00,Wunderground v.1.15,2013-01-11 04:18:00,
2013-01-10 21:24:00,34.6,21.3,29.75,South,184,1.0,1.0,58,0.00,,,0.00,Wunderground v.1.15,2013-01-11 04:24:00,
2013-01-10 21:28:00,34.3,21.4,29.75,South,184,0.0,1.0,59,0.00,,,0.00,Wunderground v.1.15,2013-01-11 04:28:00,
2013-01-10 21:30:00,34.1,21.3,29.75,South,184,0.0,0.0,59,0.00,,,0.00,Wunderground v.1.15,2013-01-11 04:30:00,
2013-01-10 21:32:00,34.0,21.2,29.75,South,184,0.0,0.0,59,0.00,,,0.00,Wunderground v.1.15,2013-01-11 04:32:00,
2013-01-10 21:36:00,34.3,21.0,29.75,SSW,195,0.0,1.0,58,0.00,,,0.00,Wunderground v.1.15,2013-01-11 04:36:00,
2013-01-10 21:38:00,34.3,21.0,29.75,SSW,195,0.0,1.0,58,0.00,,,0.00,Wunderground v.1.15,2013-01-11 04:38:00,
2013-01-10 21:40:00,34.1,20.9,29.75,SSW,195,0.0,0.0,58,0.00,,,0.00,Wunderground v.1.15,2013-01-11 04:40:00,
2013-01-10 21:44:00,34.3,21.0,29.75,SSW,195,0.0,0.0,58,0.00,,,0.00,Wunderground v.1.15,2013-01-11 04:44:00,
2013-01-10 21:48:00,34.1,21.3,29.76,SSW,195,0.0,0.0,59,0.00,,,0.00,Wunderground v.1.15,2013-01-11 04:48:00,
2013-01-10 21:52:00,33.8,21.0,29.76,SSW,195,0.0,0.0,59,0.00,,,0.00,Wunderground v.1.15,2013-01-11 04:52:00,
2013-01-10 21:54:00,33.5,21.1,29.76,ESE,120,0.0,1.0,60,0.00,,,0.00,Wunderground v.1.15,2013-01-11 04:54:00,
2013-01-10 21:58:00,33.2,20.8,29.76,East,97,0.0,3.0,60,0.00,,,0.00,Wunderground v.1.15,2013-01-11 04:58:00,
2013-01-10 22:00:00,32.9,20.5,29.76,East,97,1.0,1.0,60,0.00,,,0.00,Wunderground v.1.15,2013-01-11 05:00:00,
2013-01-10 22:06:00,33.1,19.9,29.75,East,97,1.0,1.0,58,0.00,,,0.00,Wunderground v.1.15,2013-01-11 05:06:00,
2013-01-10 22:08:00,33.5,19.9,29.75,East,97,0.0,1.0,57,0.00,,,0.00,Wunderground v.1.15,2013-01-11 05:08:00,
2013-01-10 22:10:00,33.8,19.7,29.75,East,97,0.0,1.0,56,0.00,,,0.00,Wunderground v.1.15,2013-01-11 05:10:00,
2013-01-10 22:12:00,34.3,18.9,29.75,SE,141,1.0,2.0,53,0.00,,,0.00,Wunderground v.1.15,2013-01-11 05:12:00,
2013-01-10 22:16:00,34.9,19.0,29.69,SE,141,1.0,2.0,52,0.00,,,0.00,Wunderground v.1.15,2013-01-11 05:16:00,
2013-01-10 22:18:00,35.0,19.1,29.69,ESE,109,1.0,2.0,52,0.00,,,0.00,Wunderground v.1.15,2013-01-11 05:18:00,
2013-01-10 22:20:00,35.2,18.9,29.69,SE,144,1.0,1.0,51,0.00,,,0.00,Wunderground v.1.15,2013-01-11 05:20:00,
2013-01-10 22:22:00,35.6,17.8,29.69,South,180,1.0,5.0,48,0.00,,,0.00,Wunderground v.1.15,2013-01-11 05:22:00,
2013-01-10 22:26:00,38.2,17.6,29.69,South,176,3.0,5.0,43,0.00,,,0.00,Wunderground v.1.15,2013-01-11 05:26:00,
2013-01-10 22:28:00,38.8,18.2,29.69,SSW,211,3.0,5.0,43,0.00,,,0.00,Wunderground v.1.15,2013-01-11 05:28:00,
2013-01-10 22:32:00,39.5,18.3,29.66,SSW,192,4.0,10.0,42,0.00,,,0.00,Wunderground v.1.15,2013-01-11 05:32:00,
2013-01-10 22:34:00,40.2,18.3,29.66,SSW,202,5.0,10.0,41,0.00,,,0.00,Wunderground v.1.15,2013-01-11 05:34:00,
2013-01-10 22:36:00,40.8,18.9,29.66,SSW,201,6.0,10.0,41,0.00,,,0.00,Wunderground v.1.15,2013-01-11 05:36:00,
2013-01-10 22:38:00,41.1,19.2,29.66,SSW,205,8.0,10.0,41,0.00,,,0.00,Wunderground v.1.15,2013-01-11 05:38:00,
2013-01-10 22:40:00,41.1,19.7,29.66,SW,215,8.0,8.0,42,0.00,,,0.00,Wunderground v.1.15,2013-01-11 05:40:00,
2013-01-10 22:42:00,40.9,20.1,29.66,SW,215,8.0,8.0,43,0.00,,,0.00,Wunderground v.1.15,2013-01-11 05:42:00,
2013-01-10 22:46:00,40.6,20.4,29.63,SW,226,6.0,8.0,44,0.00,,,0.00,Wunderground v.1.15,2013-01-11 05:46:00,
2013-01-10 22:48:00,40.5,20.3,29.63,SSW,192,5.0,8.0,44,0.00,,,0.00,Wunderground v.1.15,2013-01-11 05:48:00,
2013-01-10 22:50:00,40.2,20.5,29.63,South,191,3.0,3.0,45,0.00,,,0.00,Wunderground v.1.15,2013-01-11 05:50:00,
2013-01-10 22:52:00,39.9,20.3,29.63,SSW,192,2.0,3.0,45,0.00,,,0.00,Wunderground v.1.15,2013-01-11 05:52:00,
2013-01-10 22:54:00,39.8,20.7,29.63,SSW,192,2.0,3.0,46,0.00,,,0.00,Wunderground v.1.15,2013-01-11 05:54:00,
2013-01-10 22:56:00,39.6,20.5,29.63,SSW,192,1.0,3.0,46,0.00,,,0.00,Wunderground v.1.15,2013-01-11 05:56:00,
2013-01-10 22:58:00,39.5,20.4,29.63,SSW,192,1.0,3.0,46,0.00,,,0.00,Wunderground v.1.15,2013-01-11 05:58:00,
2013-01-10 23:04:00,39.1,20.0,29.65,SSW,192,1.0,2.0,46,0.00,,,0.00,Wunderground v.1.15,2013-01-11 06:04:00,
2013-01-10 23:08:00,38.3,19.8,29.65,SSW,192,0.0,2.0,47,0.00,,,0.00,Wunderground v.1.15,2013-01-11 06:08:00,
2013-01-10 23:10:00,37.9,19.9,29.65,SSW,192,0.0,2.0,48,0.00,,,0.00,Wunderground v.1.15,2013-01-11 06:10:00,
2013-01-10 23:12:00,37.5,19.1,29.65,NE,55,0.0,2.0,47,0.00,,,0.00,Wunderground v.1.15,2013-01-11 06:12:00,
2013-01-10 23:14:00,36.9,18.5,29.65,NE,55,0.0,2.0,47,0.00,,,0.00,Wunderground v.1.15,2013-01-11 06:14:00,
2013-01-10 23:16:00,36.3,18.5,29.63,ENE,71,0.0,2.0,48,0.00,,,0.00,Wunderground v.1.15,2013-01-11 06:16:00,
2013-01-10 23:18:00,35.8,17.5,29.63,ENE,71,0.0,2.0,47,0.00,,,0.00,Wunderground v.1.15,2013-01-11 06:18:00,
2013-01-10 23:22:00,34.9,17.7,29.63,ENE,71,0.0,0.0,49,0.00,,,0.00,Wunderground v.1.15,2013-01-11 06:22:00,
2013-01-10 23:24:00,34.6,18.3,29.63,ENE,71,0.0,0.0,51,0.00,,,0.00,Wunderground v.1.15,2013-01-11 06:24:00,
2013-01-10 23:26:00,34.4,18.1,29.63,ENE,71,0.0,0.0,51,0.00,,,0.00,Wunderground v.1.15,2013-01-11 06:26:00,
2013-01-10 23:28:00,34.1,17.4,29.63,ENE,69,0.0,0.0,50,0.00,,,0.00,Wunderground v.1.15,2013-01-11 06:28:00,
2013-01-10 23:34:00,34.0,17.3,29.66,SSE,159,1.0,1.0,50,0.00,,,0.00,Wunderground v.1.15,2013-01-11 06:34:00,
2013-01-10 23:40:00,33.7,17.9,29.66,SSE,159,0.0,0.0,52,0.00,,,0.00,Wunderground v.1.15,2013-01-11 06:40:00,
2013-01-10 23:42:00,33.5,17.7,29.66,SE,139,0.0,4.0,52,0.00,,,0.00,Wunderground v.1.15,2013-01-11 06:42:00,
2013-01-10 23:44:00,33.5,17.7,29.66,SE,136,0.0,4.0,52,0.00,,,0.00,Wunderground v.1.15,2013-01-11 06:44:00,
2013-01-10 23:48:00,33.7,17.9,29.66,SE,136,0.0,4.0,52,0.00,,,0.00,Wunderground v.1.15,2013-01-11 06:48:00,
2013-01-10 23:50:00,34.1,18.3,29.66,SW,232,0.0,0.0,52,0.00,,,0.00,Wunderground v.1.15,2013-01-11 06:50:00,
2013-01-10 23:52:00,34.4,18.1,29.66,SW,215,1.0,3.0,51,0.00,,,0.00,Wunderground v.1.15,2013-01-11 06:52:00,
2013-01-10 23:54:00,35.3,18.5,29.66,SSW,192,1.0,6.0,50,0.00,,,0.00,Wunderground v.1.15,2013-01-11 06:54:00,
2013-01-10 23:56:00,36.5,19.1,29.66,SW,217,2.0,6.0,49,0.00,,,0.00,Wunderground v.1.15,2013-01-11 06:56:00,
2013-01-10 23:58:00,37.5,19.1,29.66,SSW,211,3.0,6.0,47,0.00,,,0.00,Wunderground v.1.15,2013-01-11 06:58:00,